GW6178 Weather Reports


Display with metric or nautical units.
time (UTC)temp
F
wind
direction
speed
MPH
gust
MPH
rain 1hr
in
rain 24hr
in
rain mn
in
humidity
%
barometer
mb
20260902125517 70 324 1.0 7.0 0.00 0.03 0.00 56 1022.2
20260902124516 69 294 1.0 3.0 0.00 0.03 0.00 60 1022.3
20260902123519 69 305 3.0 9.0 0.00 0.03 0.00 60 1022.4
20260902122518 70 287 1.0 3.0 0.00 0.03 0.00 61 1022.4
20260902121517 67 283 1.0 4.0 0.00 0.03 0.00 64 1022.5
20260902120516 68 296 2.0 7.0 0.00 0.03 0.00 65 1022.5
20260902115516 66 304 2.0 3.0 0.00 0.03 0.00 65 1022.5
20260902114515 66 308 2.0 4.0 0.00 0.03 0.00 67 1022.7
20260902113540 67 307 2.0 4.0 0.00 0.03 0.00 69 1022.7
20260902112640 67 308 1.0 6.0 0.00 0.03 0.00 72 1022.7
20260902111559 67 275 2.0 6.0 0.00 0.03 0.00 72 1022.8
20260902110519 66 285 2.0 4.0 0.00 0.03 0.00 73 1022.7
20260902105518 65 293 2.0 4.0 0.00 0.03 0.00 75 1022.8
20260902104520 65 324 2.0 6.0 0.00 0.03 0.00 75 1022.9
20260902103518 65 306 2.0 7.0 0.00 0.03 0.00 76 1022.9
20260902102517 65 159 1.0 4.0 0.00 0.03 0.00 76 1022.9
20260902101517 65 209 2.0 4.0 0.00 0.03 0.00 77 1023.0
20260902100516 65 222 1.0 3.0 0.00 0.03 0.00 77 1023.0
20260902095520 65 172 2.0 6.0 0.00 0.03 0.00 76 1022.9
20260902094519 66 202 1.0 4.0 0.00 0.03 0.00 75 1022.8
20260902093518 65 167 1.0 4.0 0.00 0.03 0.00 75 1022.7
20260902092519 65 162 2.0 6.0 0.00 0.03 0.00 75 1022.7
20260902091518 65 155 2.0 6.0 0.00 0.03 0.00 75 1022.7
20260902090517 65 143 3.0 7.0 0.00 0.03 0.00 76 1022.7
20260902085518 64 173 3.0 7.0 0.00 0.03 0.00 77 1022.8
20260902085036 63 125 1.0 4.0 0.00 0.03 0.00 80 1022.8
20260902084017 63 104 5.0 7.0 0.00 0.03 0.00 80 1022.5
20260902083015 62 111 5.0 8.0 0.00 0.03 0.00 80 1022.5
20260902082038 62 102 3.0 6.0 0.00 0.03 0.00 81 1022.5
20260902081015 62 99 3.0 6.0 0.00 0.03 0.00 81 1022.7
20260902080020 62 108 3.0 6.0 0.00 0.03 0.00 82 1022.5
20260902075019 61 98 3.0 6.0 0.00 0.03 0.00 84 1022.6
20260902074038 60 96 4.0 7.0 0.00 0.03 0.00 85 1022.6
20260902073017 59 97 3.0 6.0 0.00 0.03 0.00 86 1022.6
20260902072018 59 95 2.0 6.0 0.00 0.03 0.00 87 1022.6
20260902071035 58 101 4.0 9.0 0.00 0.03 0.00 88 1022.6
20260902070019 59 98 2.0 6.0 0.00 0.03 0.00 88 1022.6
20260902065017 59 120 4.0 8.0 0.00 0.03 0.00 88 1022.7
20260902064020 58 108 4.0 8.0 0.00 0.03 0.00 89 1022.4
20260902063018 58 88 4.0 7.0 0.00 0.03 0.00 90 1022.4
20260902062020 57 97 3.0 6.0 0.00 0.03 0.00 91 1022.4
20260902061018 57 108 4.0 7.0 0.00 0.03 0.00 92 1022.5
20260902060020 57 115 3.0 6.0 0.00 0.03 0.00 92 1022.6
20260902055015 56 92 4.0 6.0 0.00 0.03 0.00 93 1022.5
20260902054017 56 111 3.0 6.0 0.00 0.03 0.00 94 1022.6
20260902053019 56 116 3.0 6.0 0.00 0.03 0.00 94 1022.6
20260902052016 56 102 3.0 6.0 0.00 0.03 0.00 95 1022.6
20260902051018 55 102 2.0 4.0 0.00 0.03 0.00 95 1022.5
20260902050020 55 111 3.0 6.0 0.00 0.03 0.00 95 1022.5
20260902045039 55 102 4.0 7.0 0.00 0.03 0.00 96 1022.4
20260902044016 55 115 3.0 4.0 0.00 0.03 0.00 96 1022.5
20260902043015 55 106 2.0 4.0 0.00 0.03 0.00 96 1022.5
20260902042020 54 112 2.0 3.0 0.00 0.03 0.00 96 1022.7
20260902041016 54 118 2.0 4.0 0.00 0.03 0.00 96 1022.8
20260902040039 54 106 3.0 4.0 0.00 0.03 0.00 96 1022.8
20260902035017 54 104 3.0 4.0 0.00 0.03 0.00 96 1022.9
20260902034016 54 111 2.0 4.0 0.00 0.03 0.00 96 1022.8
20260902033019 54 96 1.0 2.0 0.00 0.03 0.00 97 1022.6
20260902032037 54 110 1.0 3.0 0.00 0.03 0.00 97 1022.7
20260902031019 54 102 1.0 2.0 0.00 0.03 0.00 97 1022.8
20260902030018 54 110 1.0 2.0 0.00 0.03 0.00 97 1022.9
20260902025016 54 101 1.0 2.0 0.00 0.03 0.00 97 1023.0
20260902024019 54 104 1.0 2.0 0.00 0.03 0.00 97 1023.1
20260902023037 54 111 0.0 2.0 0.00 0.03 0.00 97 1023.2
20260902022015 54 109 0.0 1.0 0.00 0.03 0.00 96 1023.1
20260902021019 54 118 1.0 2.0 0.00 0.03 0.00 96 1023.1
20260902020017 54 102 1.0 2.0 0.00 0.03 0.00 96 1023.1
20260902015055 55 117 1.0 2.0 0.00 0.03 0.00 96 1023.3
20260902014039 55 93 1.0 2.0 0.00 0.03 0.00 96 1023.1
20260902013017 55 114 3.0 4.0 0.00 0.03 0.00 96 1022.9
20260902012015 55 103 3.0 4.0 0.00 0.03 0.00 96 1022.9
20260902011018 55 100 2.0 4.0 0.00 0.03 0.00 96 1022.8
20260902010056 55 106 2.0 4.0 0.00 0.03 0.00 96 1022.7
20260902005020 55 107 1.0 2.0 0.00 0.03 0.00 96 1022.9
20260902004018 55 92 1.0 2.0 0.00 0.03 0.00 96 1022.9
20260902003036 55 104 1.0 3.0 0.00 0.03 0.00 96 1023.1
20260902002019 56 112 1.0 2.0 0.00 0.03 0.00 96 1023.1
20260902001017 56 110 1.0 2.0 0.00 0.03 0.00 95 1023.3
20260902000015 56 114 1.0 2.0 0.00 0.03 0.00 95 1023.3
20260901235019 56 0.0 0.0 0.00 0.03 0.00 95 1023.4
20260901234017 56 0.0 0.0 0.00 0.03 0.00 95 1023.4
20260901233015 56 0.0 0.0 0.00 0.03 0.00 95 1023.2
20260901232019 57 0.0 0.0 0.00 0.03 0.00 95 1023.4
20260901231017 57 0.0 0.0 0.00 0.03 0.00 95 1023.3
20260901230101 57 0.0 0.0 0.00 0.03 0.00 94 1023.3
20260901225038 57 0.0 0.0 0.00 0.03 0.00 94 1023.3
20260901224035 57 0.0 0.0 0.00 0.03 0.00 94 1023.3
20260901223019 57 0.0 0.0 0.00 0.03 0.00 94 1023.4
20260901222017 58 0.0 0.0 0.00 0.03 0.00 93 1023.3
20260901221015 58 0.0 0.0 0.00 0.03 0.00 93 1023.3
20260901220039 58 89 0.0 1.0 0.00 0.03 0.03 92 1023.2
20260901215018 59 0.0 0.0 0.00 0.03 0.03 91 1023.2
20260901214016 60 0.0 0.0 0.00 0.03 0.03 90 1023.2
20260901213018 60 114 0.0 2.0 0.00 0.03 0.03 89 1023.1
20260901212016 60 275 0.0 1.0 0.00 0.03 0.03 90 1023.2
20260901211019 61 0.0 0.0 0.00 0.03 0.03 88 1023.2
20260901210015 60 191 0.0 2.0 0.00 0.03 0.03 89 1023.2
20260901205018 60 0.0 0.0 0.00 0.03 0.03 89 1023.2
20260901204039 61 111 0.0 1.0 0.00 0.03 0.03 89 1023.1
20260901203038 61 34 0.0 1.0 0.00 0.03 0.03 88 1023.2
20260901202021 61 267 0.0 1.0 0.00 0.03 0.03 88 1023.2
20260901201017 62 168 1.0 2.0 0.00 0.03 0.03 87 1023.0
20260901200019 62 175 1.0 4.0 0.00 0.03 0.03 87 1023.2
20260901195017 62 185 1.0 3.0 0.00 0.03 0.03 87 1023.1
20260901194016 62 282 1.0 3.0 0.00 0.03 0.03 87 1023.1
20260901193059 62 199 1.0 3.0 0.00 0.03 0.03 87 1023.1
20260901192017 62 195 1.0 3.0 0.00 0.03 0.03 86 1023.1
20260901191020 62 139 1.0 2.0 0.00 0.03 0.03 86 1023.0
20260901190017 62 261 1.0 3.0 0.00 0.03 0.03 85 1022.9
20260901185020 63 203 0.0 1.0 0.00 0.03 0.03 85 1022.8
20260901184016 63 237 0.0 2.0 0.00 0.03 0.03 84 1022.6
20260901183017 63 172 1.0 6.0 0.00 0.03 0.03 83 1022.6
20260901182019 63 247 0.0 2.0 0.00 0.03 0.03 82 1022.4
20260901181016 64 279 1.0 3.0 0.00 0.03 0.03 81 1022.4
20260901180018 64 270 1.0 3.0 0.00 0.03 0.03 81 1022.3
20260901175019 64 291 1.0 4.0 0.00 0.03 0.03 80 1022.1
20260901174017 65 252 2.0 4.0 0.00 0.03 0.03 79 1022.1
20260901173037 65 298 2.0 6.0 0.00 0.03 0.03 78 1022.1
20260901172019 65 253 3.0 7.0 0.00 0.03 0.03 78 1022.0
20260901171016 66 266 2.0 4.0 0.00 0.03 0.03 78 1021.9
20260901170017 65 205 2.0 8.0 0.00 0.03 0.03 81 1021.7
20260901165019 65 232 3.0 7.0 0.00 0.05 0.03 80 1021.8
20260901164016 65 295 2.0 7.0 0.00 0.10 0.03 80 1021.8
20260901163018 65 271 2.0 8.0 0.00 0.12 0.03 79 1021.8
20260901162016 66 215 2.0 6.0 0.00 0.14 0.03 79 1021.9
20260901161018 66 284 2.0 7.0 0.00 0.14 0.03 78 1021.8
20260901160035 65 280 2.0 7.0 0.00 0.14 0.03 78 1021.8
20260901155017 65 265 2.0 7.0 0.00 0.14 0.03 78 1021.8
20260901154019 66 287 2.0 6.0 0.00 0.14 0.03 77 1021.9
20260901153016 67 307 1.0 3.0 0.00 0.14 0.03 75 1022.0
20260901152018 66 308 2.0 6.0 0.00 0.14 0.03 76 1021.9
20260901151020 67 266 1.0 6.0 0.00 0.14 0.03 74 1021.8
20260901150016 63 264 1.0 6.0 0.00 0.14 0.03 80 1021.6
20260901145018 64 270 1.0 4.0 0.01 0.14 0.03 81 1021.6
20260901144020 63 288 2.0 4.0 0.03 0.14 0.03 81 1021.8
20260901143017 63 274 2.0 7.0 0.03 0.14 0.03 81 1021.9
20260901142036 63 211 2.0 6.0 0.03 0.14 0.03 82 1021.8
20260901141017 63 242 3.0 8.0 0.03 0.14 0.03 82 1021.9
20260901140017 63 266 2.0 6.0 0.03 0.15 0.03 83 1021.9
20260901135020 64 298 2.0 7.0 0.02 0.14 0.02 84 1022.0
20260901134038 67 308 4.0 11.0 0.00 0.12 0.00 76 1022.0
20260901133019 68 315 4.0 13.0 0.00 0.12 0.00 72 1021.9
20260901132015 70 297 2.0 9.0 0.00 0.12 0.00 65 1021.7
20260901131017 69 292 3.0 8.0 0.00 0.12 0.00 65 1021.6
20260901130018 70 306 2.0 4.0 0.00 0.12 0.00 67 1021.6